Regional Weather Roundup
Issued by NWS Albany, NY

Home | Current Version | Previous Version | Text Only | Print | Product List | Glossary On
Versions: 1 2 3 4 5 6 7 8 9 10 11 12 13 14 15 16 17 18 19 20 21 22 23 24 25 26 27 28 29 30 31 32 33 34 35 36 37 38 39 40 41 42 43 44 45 46 47 48 49 50
000
ASUS41 KALY 271510
RWRALY

NEW YORK STATE HOURLY WEATHER ROUNDUP
NATIONAL WEATHER SERVICE ALBANY NY
1100 AM EDT WED MAY 27 2015

NOTE: "FAIR" INDICATES FEW OR NO CLOUDS BELOW 12,000 FEET WITH NO
SIGNIFICANT WEATHER AND/OR NO OBSTRUCTIONS TO VISIBILITY.

NYZ032-033-038>043-046>054-057>066-NYZ062>081-271600-
EAST


CITY           SKY/WX    TMP DP  RH WIND       PRES   REMARKS
ALBANY         PTSUNNY   80  66  62 S16       30.08F
GLENS FALLS    MOSUNNY   79  67  66 S13G21    30.06F
POUGHKEEPSIE   PTSUNNY   80  66  62 VRB7G17   30.13S
NEWBURGH       PTSUNNY   79  70  73 SW12      30.16S
MONTGOMERY     CLOUDY    78  69  73 SW13      30.14S
WHITE PLAINS   PTSUNNY   78  67  68 S7        30.17S
ISLIP          CLOUDY    68  62  81 S10       30.20S
NEW YORK CITY  PTSUNNY   78  65  63 S8        30.17S
CENTRAL PARK   PTSUNNY   79  67  66 VRB3      30.20S
$$

NYZ005>009-017-018-044>046-055-056-271600-
CENTRAL


CITY           SKY/WX    TMP DP  RH WIND       PRES   REMARKS
FULTON         LGT RAIN  77  65  66 SW9       30.03S
SYRACUSE       CLOUDY    78  63  59 SW18G25   30.03S
ROME           PTSUNNY   80  66  62 SW10      30.05F
ELMIRA         CLOUDY    77  63  61 SW10      30.08S
BINGHAMTON     MOSUNNY   76  65  68 SW14G21   30.12F
MONTICELLO     CLOUDY    77  70  78 S9        30.17F
$$

NYZ026>034-041>043-271600-
NORTH


CITY           SKY/WX    TMP DP  RH WIND       PRES   REMARKS
WATERTOWN      LGT RAIN  75  67  76 SW12      30.01R
FORT DRUM      NOT AVBL
MASSENA        CLOUDY    77  67  71 SW14      29.98R
SARANAC LAKE   PTSUNNY   78  62  57 SW16G23   30.03F
PLATTSBURGH    PTSUNNY   80  68  66 SE12      29.98F
$$

NYZ001>004-010>016-019>021-271600-
WEST


CITY           SKY/WX    TMP DP  RH WIND       PRES   REMARKS
NIAGARA FALLS  CLOUDY    72  62  71 SW20G29   30.02S
BUFFALO        CLOUDY    74  62  66 SW21G28   30.04R
DUNKIRK        LGT RAIN  73  62  68 SW10      30.05S
JAMESTOWN      CLOUDY    70  61  73 SW12      30.11S
WELLSVILLE     CLOUDY    69  61  75 SW10G18   30.14S
ROCHESTER      CLOUDY    78  63  59 W15       30.03S
PENN YAN       CLOUDY    75  62  64 S9        30.08R
$$

             KEY
       WCI = WIND CHILL INDEX
       VSB = VISIBILITY
       HX  = HEAT INDEX
$$


USA.gov is the U.S. government's official web portal to all federal, state and local government web resources and services.